Regional Weather Roundup
Issued by NWS

Home | Current Version | Previous Version | Text Only | Print | Product List | Glossary Off
Versions: 1 2 3 4 5 6 7 8 9 10 11 12 13 14 15 16 17 18 19 20 21 22 23 24 25 26 27 28 29 30 31 32 33 34 35 36 37 38 39 40 41 42 43 44 45 46 47 48 49 50

000
ASUS43 KDTX 201501
RWRMI
MICHIGAN HOURLY REGIONAL WEATHER ROUNDUP
NATIONAL WEATHER SERVICE DETROIT/PONTIAC MI
1000 AM EST FRI JAN 20 2017

NOTE: "FAIR" INDICATES FEW OR NO CLOUDS BELOW 12,000 FEET WITH NO
SIGNIFICANT WEATHER AND/OR OBSTRUCTION TO VISIBILITY.

MIZ047>049-052>055-059>063-066>070-074>076-081>083-201600-
SOUTHEAST LOWER MICHIGAN

CITY           SKY/WX    TMP DP  RH WIND       PRES   REMARKS
ADRIAN         LGT RAIN  35  35 100 E7        29.65R FOG     WCI  29
ALMA           CLOUDY    32  32 100 NE9       29.71F FOG     WCI  24
ANN ARBOR      FOG       35  35 100 NE7       29.64S VSB 1   WCI  29
BAD AXE        FOG       32  32 100 E9        29.72F VSB 1/4 WCI  25
CARO           CLOUDY    33  32  96 SE5       29.72R FOG     WCI  29
DETROIT CITY   CLOUDY    35  35 100 E13       29.68F FOG     WCI  26
DETROIT        LGT RAIN  37  35  92 NE9       29.66F FOG     WCI  30
FLINT          LGT RAIN  34  33  96 NE8       29.69S FOG     WCI  27
GROSSE ILE     CLOUDY    35  35  98 E10       29.64F FOG     WCI  28
HILLSDALE      DRIZZLE   34  32  93 E6        29.62R WCI  29
HOWELL         CLOUDY    34  32  94 NE8       29.65F FOG     WCI  27

CITY           SKY/WX    TMP DP  RH WIND       PRES   REMARKS
JACKSON        LGT RAIN  35  33  92 E6        29.64R FOG     WCI  30
LAMBERTVILLE   CLOUDY    36  35  94 E5        29.65R FOG     WCI  32
LANSING        LGT RAIN  34  31  88 NE8       29.67S VSB 1   WCI  27
LAPEER         CLOUDY    33  33 100 E5        29.71R FOG     WCI  29
MASON          LGT RAIN  33  33  99 NE7       29.65F WCI  27
MONROE         CLOUDY    37  37 100 E13       29.64S FOG     WCI  29
PONTIAC        CLOUDY    33  32  96 E12       29.65F FOG     WCI  24
PORT HOPE        N/A     34  33  96 E12       29.73S WCI  25
PORT HURON     MIX PCPN  34  34 100 E6        29.74R WCI  29
TRI CITIES     FOG       32  32 100 NE7       29.73R VSB 1/2 WCI  26
MIDLAND        CLOUDY    32  32  99 E5        29.73R FOG     WCI  28
TROY           CLOUDY    35  33  94 E9        29.69F FOG     WCI  28
SAGINAW HB     CLOUDY    32  32 100 NE5       29.73R FOG     WCI  27
$$
MIZ043>046-050>051-056>058-064>065-071>073-077>080-201600-
SOUTHWEST LOWER MICHIGAN

CITY           SKY/WX    TMP DP  RH WIND       PRES   REMARKS
BATTLE CREEK   LGT RAIN  36  35  96 NE7       29.64R FOG     WCI  30
BENTON HARBOR  CLOUDY    39  36  89 E7        29.63S FOG     WCI  34
BIG RAPIDS     CLOUDY    33  32  95 NE3       29.69S FOG
COLDWATER      CLOUDY    36  36 100 E5        29.63R FOG     WCI  32
FREMONT        CLOUDY    34  34 100 NE7       29.69R FOG     WCI  28
HOLLAND        MIX PCPN  36  34  92 NE9       29.64F WCI  29
GRAND RAPIDS   LGT RAIN  34  31  88 NE12      29.65F FOG     WCI  25
KALAMAZOO      LGT RAIN  37  34  89 E6        29.64R FOG     WCI  32
LUDINGTON      CLOUDY    36  34  95 CALM      29.70S FOG
MARSHALL       LGT RAIN  35  35  98 E3        29.63R
MOUNT PLEASANT CLOUDY    32  32  99 E5        29.72R FOG     WCI  27
MUSKEGON       LGT RAIN  37  34  89 NE10      29.67F FOG     WCI  30
SOUTH HAVEN    CLOUDY    37  36  98 E5        29.64R FOG     WCI  33
$$
MIZ016>042-201600-
NORTHERN LOWER MICHIGAN

CITY           SKY/WX    TMP DP  RH WIND       PRES   REMARKS
ALPENA         FOG       33  32  96 E3        29.77F VSB 1/4
BEAVER ISLAND  FOG       31  31 100 E9        29.76S VSB 1/4 WCI  23
BELLAIRE       CLOUDY    32  32  99 CALM      29.75R FOG
CADILLAC       CLOUDY    33  32  97 E7        29.70R FOG     WCI  26
CHARLEVOIX     PTSUNNY   32  32 100 NE5       29.77S FOG     WCI  27
FRANKFORT      CLOUDY    35  34  98 CALM      29.72R FOG
GAYLORD        CLOUDY    33  29  85 E3        29.73R FOG
GRAYLING       CLOUDY    32  32 100 NE7       29.72F FOG     WCI  26
HARBOR SPRINGS CLOUDY    31  31 100 E9        29.76R FOG     WCI  23
HOUGHTON LAKE  CLOUDY    31  30  96 NE9       29.72R FOG     WCI  23
MANISTEE       LGT RAIN  35  33  92 E5        29.71S WCI  31
OSCODA         FOG       34  33  97 E5        29.76R VSB 3/4 WCI  30
PELLSTON       FOG       32  30  92 E6        29.77R VSB 1/2 WCI  26
ROGERS CITY    FOG       33  32  96 SE3       29.79S VSB 3/4
TRAVERSE CITY  CLOUDY    35  33  92 CALM      29.72S FOG
$$
MIZ007>008-015-201600-
EASTERN UPPER MICHIGAN

CITY           SKY/WX    TMP DP  RH WIND       PRES   REMARKS
KINROSS        CLOUDY    32  32 100 E9        29.79R FOG     WCI  24
MACKINAC ISLAN FOG       32  32 100 E6        29.77S VSB 1/2 WCI  26
NEWBERRY       FOG       32  31  97 SE7       29.76S VSB 1   WCI  25
S. S. MARIE    CLOUDY    34  32  92 VRB6      29.79R FOG     WCI  29
MUNISING         N/A     33  32  96 S7        29.75R WCI  27
$$
MIZ004>006-011>014-085-201600-
CENTRAL UPPER MICHIGAN

CITY           SKY/WX    TMP DP  RH WIND       PRES   REMARKS
MANISTIQUE     FOG       31  31  98 E6        29.76S VSB 1/4 WCI  26
ESCANABA       FOG       33  32  96 NE3       29.75R VSB<1/4
SAWYER-GWINN   CLOUDY    27  27 100 S7        29.73R FOG     WCI  19
$$
MIZ001>003-009>011-084-201600-
WESTERN UPPER MICHIGAN

CITY           SKY/WX    TMP DP  RH WIND       PRES   REMARKS
IRON MOUNTAIN  CLOUDY    31  28  89 N3        29.68F FOG
HOUGHTON       CLOUDY    27  24  89 CALM      29.70R
COPPER HARBOR    N/A     31  28  89 SW8       29.72R WCI  23
IRONWOOD       LGT RAIN  35  30  82 SE6       29.70S WCI  30
$$

ABBREVIATIONS USED IN REMARKS
   TC - TEMPERATURE IN CELSIUS
  WCI - WIND CHILL INDEX
   HX - HEAT INDEX
  VSB - VISIBILITY




USA.gov is the U.S. government's official web portal to all federal, state and local government web resources and services.